Nantucket, MA

5:47 AM EDT on July 24, 2017 (GMT -0400)
Nantucket Memorial

Weather History for KACK - June, 2012

Change the Weather History Date:

Sunday, June 24, 2012

  Actual Average Record
Temperature  
Mean Temperature 68 °F -  
Max Temperature 78 °F 71 °F 85 °F (1966)
Min Temperature 61 °F 57 °F 50 °F (1958)
Cooling Degree Days 3    
Growing Degree Days 18 (Base 50)    
Moisture  
Dew Point 61 °F    
Average Humidity 80    
Maximum Humidity 100    
Minimum Humidity 50    
Precipitation  
Precipitation 0.00 in - - ()
Sea Level Pressure  
Sea Level Pressure 29.93 in    
Wind  
Wind Speed 8 mph (WSW)    
Max Wind Speed 14 mph    
Max Gust Speed -    
Visibility 10 miles    
Events      
Averages and records for this station are not official NWS values.
T = Trace of Precipitation, MM = Missing Value Source: NWS Daily Summary

Daily Weather History Graph

Daily Weather History Graph

Search for Another Location

Airport or City:

Trip Planner

Search our weather history database for the weather conditions in past years. The results will help you decide how hot, cold, wet, or windy it might be!

Date:

Astronomy

Jun. 24, 2012 Rise Set
Actual Time 5:08 AM EDT 8:17 PM EDT
Civil Twilight 4:34 AM EDT 8:51 PM EDT
Nautical Twilight 3:51 AM EDT 9:34 PM EDT
Astronomical Twilight 2:59 AM EDT 10:26 PM EDT
Moon 10:13 AM EDT 11:10 PM EDT
Length of Visible Light 16h 16m
Length of Day
15h 08m
Waxing Crescent, 24% of the Moon is Illuminated
Jun 24
Waxing Crescent
Jun 26
First Quarter
Jul 3
Full
Jul 10
Last Quarter
Jul 19
New

Hourly Weather History & Observations

Time (EDT) Temp. Dew Point Humidity Pressure Visibility Wind Dir Wind Speed Gust Speed Precip Events Conditions
12:53 AM 64.0 °F 61.0 °F 90% 29.92 in 10.0 mi NW 6.9 mph - N/A   Clear
1:53 AM 63.0 °F 60.1 °F 90% 29.92 in 10.0 mi NW 6.9 mph - N/A   Clear
2:53 AM 62.1 °F 60.1 °F 93% 29.93 in 10.0 mi WNW 4.6 mph - N/A   Clear
3:53 AM 61.0 °F 59.0 °F 93% 29.92 in 10.0 mi West 5.8 mph - N/A   Clear
4:53 AM 61.0 °F 59.0 °F 93% 29.92 in 10.0 mi West 5.8 mph - N/A   Clear
5:53 AM 61.0 °F 60.1 °F 97% 29.93 in 8.0 mi WSW 6.9 mph - N/A   Clear
6:53 AM 66.0 °F 62.1 °F 87% 29.94 in 10.0 mi West 8.1 mph - N/A   Clear
7:53 AM 70.0 °F 62.1 °F 76% 29.95 in 10.0 mi WNW 8.1 mph - N/A   Clear
8:53 AM 73.0 °F 57.9 °F 59% 29.95 in 10.0 mi WNW 10.4 mph - N/A   Clear
9:53 AM 73.9 °F 57.0 °F 55% 29.95 in 10.0 mi NW 11.5 mph - N/A   Clear
10:53 AM 75.9 °F 55.9 °F 50% 29.95 in 10.0 mi NNW 10.4 mph - N/A   Clear
11:53 AM 75.9 °F 62.1 °F 62% 29.95 in 10.0 mi SW 10.4 mph - N/A   Clear
12:53 PM 72.0 °F 63.0 °F 73% 29.95 in 10.0 mi WSW 11.5 mph - N/A   Clear
1:53 PM 75.2 °F 60.8 °F 61% 29.94 in 10.0 mi SW 11.5 mph - N/A   Clear
2:53 PM 75.0 °F 57.9 °F 55% 29.94 in 10.0 mi SW 13.8 mph - N/A   Clear
3:53 PM 73.0 °F 62.1 °F 68% 29.93 in 10.0 mi WSW 12.7 mph - N/A   Clear
4:53 PM 72.0 °F 62.1 °F 71% 29.92 in 10.0 mi WSW 12.7 mph - N/A   Clear
5:53 PM 69.1 °F 63.0 °F 81% 29.93 in 10.0 mi SW 12.7 mph - N/A   Unknown
6:53 PM 69.1 °F 63.0 °F 81% 29.92 in 10.0 mi SW 10.4 mph - N/A   Unknown
7:53 PM 64.9 °F 62.1 °F 90% 29.92 in 10.0 mi SW 6.9 mph - N/A   Clear
8:53 PM 64.0 °F 63.0 °F 96% 29.93 in 10.0 mi SW 5.8 mph - N/A   Clear
9:53 PM 64.0 °F 64.0 °F 100% 29.94 in 10.0 mi SW 5.8 mph - N/A   Clear
10:53 PM 64.9 °F 63.0 °F 93% 29.93 in 10.0 mi SW 8.1 mph - N/A   Clear
11:53 PM 64.9 °F 64.0 °F 97% 29.92 in 10.0 mi SW 6.9 mph - N/A   Clear